CW7911 Weather Reports


time (UTC)temp
F
wind
direction
speed
knots
gust
knots
rain 1hr
in
rain 24hr
in
rain mn
in
humidity
%
barometer
mb
20260507193344 58 274 0.9 5.2 0.00 0.01 0.01 31 1002.6
20260507192839 59 274 0.0 3.5 0.00 0.01 0.01 31 1002.5
20260507192336 59 274 0.9 5.2 0.00 0.01 0.01 30 1002.4
20260507191832 60 274 0.9 1.7 0.00 0.01 0.01 31 1002.6
20260507191329 60 274 0.0 1.7 0.00 0.01 0.01 30 1002.8
20260507190826 61 174 1.7 6.1 0.00 0.01 0.01 28 1003.0
20260507190324 61 174 1.7 7.0 0.00 0.01 0.01 29 1002.6
20260507185823 60 174 0.9 5.2 0.00 0.01 0.01 28 1002.7
20260507185319 60 174 0.0 2.6 0.00 0.01 0.01 29 1002.6
20260507184816 58 174 1.7 2.6 0.00 0.01 0.01 34 1002.6
20260507184314 59 174 1.7 1.7 0.00 0.01 0.01 33 1002.7
20260507183811 56 174 0.0 1.7 0.00 0.01 0.01 35 1002.7
20260507183308 58 174 0.9 2.6 0.00 0.01 0.01 34 1002.7
20260507182805 59 174 1.7 2.6 0.00 0.01 0.01 36 1002.5
20260507182300 59 174 0.0 0.9 0.00 0.01 0.01 37 1002.7
20260507181757 59 174 0.9 5.2 0.00 0.01 0.01 32 1002.9
20260507181253 60 174 1.7 3.5 0.00 0.01 0.01 32 1002.8
20260507180750 60 174 0.9 2.6 0.00 0.01 0.01 35 1002.7
20260507180247 58 174 0.9 3.5 0.00 0.01 0.01 41 1003.1
20260507175742 58 174 0.0 1.7 0.00 0.01 0.01 39 1003.2
20260507175240 60 174 0.9 3.5 0.00 0.01 0.01 39 1003.0
20260507174737 59 174 3.5 5.2 0.00 0.01 0.01 38 1002.8
20260507174235 58 174 2.6 3.5 0.00 0.01 0.01 34 1003.0
20260507173733 59 174 5.2 7.8 0.00 0.01 0.01 35 1003.1
20260507173229 60 174 2.6 5.2 0.00 0.01 0.01 34 1003.1
20260507172725 59 174 0.0 3.5 0.00 0.01 0.01 34 1003.1
20260507172222 58 174 0.0 3.5 0.00 0.01 0.01 43 1003.2
20260507171717 58 174 0.0 5.2 0.00 0.01 0.01 46 1003.1
20260507171215 58 174 0.9 3.5 0.00 0.01 0.01 47 1003.2
20260507170711 62 174 0.9 7.0 0.00 0.01 0.01 42 1003.3
20260507170208 62 174 2.6 3.5 0.00 0.01 0.01 38 1003.0
20260507165703 59 174 0.9 1.7 0.00 0.01 0.01 39 1003.2
20260507165159 58 174 1.7 3.5 0.00 0.01 0.01 43 1003.3
20260507164655 57 174 0.9 3.5 0.00 0.01 0.01 43 1003.3
20260507164148 60 174 0.0 3.5 0.00 0.01 0.01 44 1003.3
20260507163644 59 174 1.7 3.5 0.00 0.01 0.01 40 1003.4
20260507163143 59 174 0.9 2.6 0.00 0.01 0.01 41 1003.3
20260507162638 59 174 0.0 6.1 0.00 0.01 0.01 43 1003.3
20260507162135 59 174 0.0 0.9 0.00 0.01 0.01 41 1003.2
20260507161631 57 174 0.0 1.7 0.00 0.01 0.01 45 1003.4
20260507161127 57 174 3.5 3.5 0.00 0.01 0.01 44 1003.6
20260507160624 57 174 0.0 1.7 0.00 0.01 0.01 51 1003.8
20260507160121 57 174 0.9 2.6 0.00 0.01 0.01 49 1003.7
20260507155616 58 174 1.7 2.6 0.00 0.01 0.01 49 1003.6
20260507155113 59 174 0.0 3.5 0.00 0.01 0.01 49 1003.7
20260507154610 58 174 0.9 5.2 0.00 0.01 0.01 45 1003.8
20260507154107 56 174 1.7 2.6 0.00 0.01 0.01 48 1003.9
20260507153603 54 174 0.0 0.9 0.00 0.01 0.01 56 1003.9
20260507153100 57 174 0.9 1.7 0.00 0.01 0.01 49 1004.0
20260507152556 60 174 0.0 3.5 0.00 0.01 0.01 48 1003.8
20260507152052 56 174 0.0 2.6 0.00 0.01 0.01 54 1004.0
20260507151548 56 174 0.0 0.9 0.00 0.01 0.01 50 1004.1
20260507151045 57 174 0.9 2.6 0.00 0.01 0.01 47 1004.1
20260507150537 58 174 2.6 3.5 0.00 0.01 0.01 45 1003.8
20260507150033 59 174 0.0 1.7 0.00 0.01 0.01 43 1003.8
20260507145528 59 174 0.0 0.9 0.00 0.01 0.01 45 1003.6
20260507145027 57 174 2.6 2.6 0.00 0.01 0.01 47 1003.9
20260507144523 58 174 2.6 5.2 0.00 0.01 0.01 45 1004.0
20260507144020 58 174 0.0 6.1 0.00 0.01 0.01 51 1004.1
20260507143517 56 174 0.9 1.7 0.00 0.01 0.01 51 1003.9
20260507143015 56 174 0.0 0.0 0.00 0.01 0.01 45 1004.1
20260507142510 57 174 0.9 2.6 0.00 0.01 0.01 48 1004.0
20260507142007 57 174 0.0 0.9 0.00 0.01 0.01 51 1003.9
20260507141503 56 174 2.6 2.6 0.00 0.01 0.01 47 1004.0
20260507141000 56 174 0.0 1.7 0.00 0.01 0.01 54 1004.3
20260507140456 55 174 0.0 0.0 0.00 0.01 0.01 54 1004.4
20260507135954 55 174 0.0 1.7 0.00 0.01 0.01 52 1004.5
20260507135451 55 174 0.0 0.9 0.00 0.01 0.01 57 1004.5
20260507134948 54 174 0.0 1.7 0.00 0.01 0.01 57 1004.4
20260507134444 53 174 0.0 1.7 0.00 0.01 0.01 61 1004.3
20260507133940 53 174 0.0 1.7 0.00 0.01 0.01 60 1004.5
20260507133437 53 174 0.0 0.9 0.00 0.01 0.01 60 1004.4
20260507132936 52 174 0.0 0.9 0.00 0.01 0.01 61 1004.6
20260507132431 52 174 0.0 0.9 0.00 0.01 0.01 65 1004.5
20260507131927 52 174 0.0 3.5 0.00 0.01 0.01 64 1004.7
20260507131425 53 174 0.9 1.7 0.00 0.01 0.01 65 1004.6
20260507130922 52 174 0.9 2.6 0.00 0.01 0.01 67 1004.7
20260507130419 51 174 0.9 1.7 0.00 0.01 0.01 68 1004.6
20260507125918 51 174 1.7 2.6 0.00 0.01 0.01 69 1004.8
20260507125415 51 174 0.0 2.6 0.00 0.01 0.01 68 1004.6
20260507124912 51 174 0.0 0.0 0.00 0.01 0.01 69 1004.6
20260507124408 51 174 0.0 0.0 0.00 0.01 0.01 69 1004.8
20260507123907 51 174 0.0 0.9 0.00 0.01 0.01 71 1004.9
20260507123403 50 174 0.0 0.9 0.00 0.01 0.01 74 1004.6
20260507122900 50 174 0.0 1.7 0.00 0.01 0.01 75 1005.0
20260507122355 50 174 0.0 3.5 0.00 0.01 0.01 73 1005.4
20260507121852 50 174 0.0 0.0 0.00 0.01 0.01 71 1005.2
20260507121347 49 174 0.0 0.0 0.00 0.01 0.01 78 1005.2
20260507120844 48 174 0.0 0.0 0.00 0.01 0.01 79 1005.1
20260507120340 47 174 0.0 0.0 0.00 0.01 0.01 82 1005.0
20260507115837 46 174 0.9 1.7 0.00 0.01 0.01 89 1005.1
20260507115332 46 174 0.0 0.0 0.00 0.01 0.01 92 1005.2
20260507114828 46 174 0.0 1.7 0.00 0.01 0.01 93 1005.0
20260507114326 45 174 0.0 1.7 0.00 0.01 0.01 95 1005.1
20260507113823 45 174 0.0 0.0 0.00 0.01 0.01 95 1005.2
20260507113320 44 174 0.0 0.9 0.00 0.01 0.01 95 1004.8
20260507112818 44 174 0.0 0.9 0.00 0.01 0.01 95 1005.2
20260507112314 44 174 0.0 0.0 0.00 0.01 0.01 95 1004.8
20260507111812 44 174 0.0 0.0 0.00 0.01 0.01 95 1005.0
20260507111308 43 174 0.0 0.0 0.00 0.01 0.01 95 1005.1
20260507110805 42 174 0.0 0.0 0.00 0.01 0.01 95 1005.2
20260507110301 42 174 0.0 0.0 0.00 0.01 0.01 95 1005.3
20260507105758 42 174 0.0 0.0 0.00 0.01 0.01 95 1005.4
20260507105254 42 174 0.0 0.0 0.00 0.01 0.01 95 1005.3
20260507104751 42 174 0.0 0.0 0.00 0.01 0.01 95 1005.0
20260507104247 42 174 0.0 0.0 0.00 0.01 0.01 95 1005.2
20260507103743 42 174 0.0 0.0 0.00 0.01 0.01 95 1005.4
20260507103235 42 174 0.0 0.0 0.00 0.01 0.01 95 1005.0
20260507102731 42 174 0.0 0.0 0.00 0.01 0.01 95 1005.2
20260507102228 42 174 0.0 0.0 0.00 0.01 0.01 95 1005.2
20260507101724 42 174 0.0 0.0 0.00 0.01 0.01 95 1005.4
20260507101219 42 174 0.0 0.0 0.00 0.01 0.01 95 1005.4
20260507100716 42 174 0.0 0.0 0.00 0.01 0.01 95 1005.4
20260507100215 42 174 0.0 0.0 0.00 0.01 0.01 95 1005.4
20260507095712 42 174 0.0 0.0 0.00 0.01 0.01 95 1005.1
20260507095209 42 174 0.0 0.0 0.00 0.01 0.01 95 1005.4
20260507094706 42 174 0.0 0.0 0.00 0.01 0.01 95 1005.1
20260507094203 41 174 0.0 0.0 0.00 0.01 0.01 95 1005.1
20260507093659 41 174 0.0 0.0 0.00 0.01 0.01 95 1004.5
20260507093158 41 174 0.0 0.0 0.00 0.01 0.01 95 1004.7
20260507092655 42 174 0.0 0.0 0.00 0.01 0.01 95 1004.6
20260507092151 42 174 0.0 0.0 0.00 0.01 0.01 95 1004.2
20260507091648 42 174 0.0 0.0 0.00 0.01 0.01 95 1004.5
20260507091144 42 174 0.0 0.0 0.00 0.01 0.01 95 1004.6
20260507090640 43 174 0.0 0.0 0.00 0.01 0.01 95 1004.6
20260507090137 43 174 0.0 0.0 0.00 0.01 0.01 95 1004.6
20260507085634 43 174 0.0 0.0 0.00 0.01 0.01 95 1005.0
20260507085131 44 174 0.0 0.0 0.00 0.01 0.01 95 1004.9
20260507084628 44 174 0.0 0.0 0.00 0.01 0.01 95 1004.6
20260507084124 44 174 0.0 0.0 0.00 0.01 0.01 95 1004.6
20260507083621 44 174 0.0 0.0 0.00 0.01 0.01 95 1005.0
20260507083118 44 174 0.0 0.0 0.00 0.01 0.01 95 1004.9
20260507082614 44 174 0.0 0.0 0.00 0.01 0.01 95 1004.6
20260507082110 44 174 0.0 1.7 0.00 0.01 0.01 95 1004.7
20260507081607 44 174 0.0 0.0 0.00 0.01 0.01 95 1004.7
20260507081104 45 174 0.0 0.0 0.00 0.01 0.01 95 1004.6
20260507080600 45 174 0.0 1.7 0.00 0.01 0.01 95 1004.6
20260507080056 45 174 0.0 0.0 0.00 0.01 0.01 95 1004.4
20260507075551 45 174 0.0 0.0 0.00 0.01 0.01 95 1004.4
20260507075048 45 174 0.0 0.0 0.00 0.01 0.01 95 1004.4
20260507074545 45 174 0.0 0.9 0.00 0.01 0.01 95 1004.3
20260507074043 45 174 0.0 0.0 0.00 0.01 0.01 95 1004.2
20260507073538 45 174 0.0 3.5 0.00 0.01 0.01 95 1004.2
20260507073030 45 174 0.0 0.0 0.00 0.01 0.01 95 1004.2
20260507072527 45 174 0.0 1.7 0.00 0.01 0.01 95 1004.2
20260507072024 46 174 0.0 3.5 0.00 0.01 0.01 95 1004.1
20260507071522 46 174 0.0 0.0 0.00 0.01 0.01 95 1004.1
20260507071018 46 174 0.0 0.0 0.00 0.01 0.01 95 1004.4
20260507070515 46 174 0.0 0.0 0.00 0.01 0.01 95 1004.1
20260507070014 46 174 0.0 1.7 0.00 0.01 0.01 95 1004.1
20260507065509 47 174 0.0 0.0 0.00 0.01 0.01 95 1004.2
20260507065006 47 174 0.0 0.0 0.00 0.01 0.01 95 1004.0
20260507064504 47 174 0.0 0.0 0.00 0.01 0.01 95 1004.0
20260507064002 47 174 0.0 0.0 0.00 0.01 0.01 95 1003.6
20260507063459 47 174 0.0 0.0 0.00 0.01 0.01 95 1003.8
20260507062956 47 174 0.0 0.0 0.00 0.01 0.01 95 1003.6
20260507062453 48 174 0.0 0.0 0.00 0.01 0.01 95 1003.6
20260507061950 48 174 0.0 0.0 0.00 0.01 0.01 95 1003.6
20260507061448 48 174 0.0 0.0 0.00 0.01 0.01 95 1003.6
20260507060946 48 174 0.0 0.0 0.00 0.01 0.01 95 1003.6
20260507060443 48 174 0.0 0.0 0.00 0.01 0.01 95 1003.3
20260507055939 48 174 0.0 0.0 0.00 0.01 0.01 95 1003.3
20260507055434 48 174 0.0 0.0 0.00 0.01 0.01 95 1003.6
20260507054932 48 174 0.0 0.0 0.00 0.01 0.01 95 1003.5
20260507054428 48 174 0.0 0.0 0.00 0.01 0.01 95 1003.3
20260507053925 48 174 0.0 0.0 0.00 0.01 0.01 95 1003.6
20260507053422 48 174 0.0 0.0 0.00 0.01 0.01 95 1003.2
20260507052921 48 174 0.0 0.0 0.00 0.01 0.01 95 1003.2
20260507052417 48 174 0.0 0.0 0.00 0.01 0.01 95 1003.1
20260507051909 48 174 0.0 0.0 0.00 0.01 0.01 95 1003.4
20260507051407 48 174 0.0 0.0 0.00 0.01 0.01 95 1003.3
20260507050904 48 174 0.0 0.0 0.00 0.01 0.01 95 1003.2
20260507050400 49 174 0.0 0.0 0.00 0.01 0.01 95 1003.1
20260507045857 49 174 0.0 0.0 0.00 0.01 0.01 95 1003.1
20260507045353 49 174 0.0 0.9 0.00 0.01 0.01 95 1003.0
20260507044851 49 174 0.0 1.7 0.00 0.01 0.01 95 1003.0
20260507044347 50 174 0.0 0.9 0.00 0.01 0.01 95 1003.0
20260507043843 51 174 0.0 1.7 0.00 0.01 0.01 95 1003.1
20260507043340 51 174 1.7 1.7 0.00 0.01 0.01 95 1003.0
20260507042836 51 174 0.9 2.6 0.00 0.01 0.01 95 1003.1
20260507042332 51 174 0.9 2.6 0.00 0.01 0.01 95 1003.0
20260507041829 52 174 0.0 1.7 0.00 0.01 0.01 95 1003.0
20260507041325 53 174 0.9 1.7 0.05 0.01 0.01 95 1003.0
20260507040823 53 174 0.0 0.9 0.05 0.01 0.01 95 1002.9
20260507040319 54 174 0.0 0.0 0.00 0.00 0.00 95 1002.8
20260507035815 54 174 0.0 0.0 0.07 0.39 0.39 95 1003.0
20260507035310 54 174 0.0 0.0 0.19 0.39 0.39 95 1002.9
20260507034809 54 174 0.0 0.9 0.12 0.38 0.38 95 1003.0
20260507034305 54 174 0.9 1.7 0.00 0.36 0.36 95 1002.9
20260507033803 52 174 0.0 0.0 0.00 0.36 0.36 95 1002.6
20260507033301 51 174 0.0 0.9 0.00 0.36 0.36 95 1002.5
20260507032757 51 174 0.0 0.0 0.00 0.36 0.36 95 1002.5
20260507032253 51 174 0.0 0.0 0.00 0.36 0.36 95 1002.1
20260507031750 52 174 0.0 0.0 0.00 0.36 0.36 95 1002.1
20260507031247 51 174 0.0 0.0 0.05 0.36 0.36 95 1002.1
20260507030744 51 174 0.0 0.0 0.05 0.36 0.36 95 1002.1
20260507030241 51 174 0.0 0.0 0.00 0.35 0.35 95 1002.0
20260507025738 51 174 0.0 0.0 0.00 0.35 0.35 95 1002.1
20260507025235 51 174 0.0 0.0 0.00 0.35 0.35 95 1002.2
20260507024734 51 174 0.0 0.0 0.00 0.35 0.35 95 1001.9
20260507024231 51 174 0.9 1.7 0.00 0.35 0.35 95 1002.0
20260507023726 51 174 0.0 0.0 0.00 0.35 0.35 95 1002.0
20260507023223 50 174 0.0 0.0 0.00 0.35 0.35 95 1002.1
20260507022720 50 174 0.0 0.0 0.00 0.35 0.35 95 1002.2
20260507022216 51 174 0.0 0.0 0.00 0.35 0.35 95 1002.1
20260507021712 51 174 0.0 0.0 0.00 0.35 0.35 95 1002.3
20260507021208 51 174 0.0 0.0 0.00 0.35 0.35 95 1002.2
20260507020707 51 174 0.0 0.0 0.00 0.35 0.35 95 1002.3
20260507020202 51 174 0.0 0.0 0.00 0.35 0.35 95 1002.1
20260507015701 51 174 0.0 0.0 0.00 0.35 0.35 95 1002.3
20260507015158 51 174 0.0 0.0 0.07 0.35 0.35 95 1002.1
20260507014654 51 174 0.0 0.0 0.07 0.35 0.35 95 1002.0
20260507014150 51 174 0.0 0.0 0.00 0.34 0.34 95 1002.3
20260507013647 50 174 0.0 0.0 0.00 0.34 0.34 95 1002.3
20260507013144 50 174 0.0 0.0 0.00 0.34 0.34 95 1002.3
20260507012642 49 174 0.0 0.0 0.00 0.34 0.34 95 1002.3
20260507012137 49 174 0.0 0.0 0.00 0.34 0.34 95 1002.8
20260507011636 49 174 0.0 0.0 0.00 0.34 0.34 95 1002.5
20260507011131 48 174 0.0 0.0 0.00 0.34 0.34 95 1002.4
20260507010626 49 174 0.0 0.0 0.00 0.34 0.34 95 1002.4
20260507010122 49 174 0.0 0.0 0.00 0.34 0.34 95 1002.5
20260507005620 49 174 0.0 0.0 0.00 0.34 0.34 95 1002.4
20260507005116 49 174 0.0 0.0 0.00 0.34 0.34 95 1002.5
20260507004613 49 174 0.0 0.0 0.00 0.34 0.34 95 1002.5
20260507004110 49 174 0.0 0.0 0.00 0.34 0.34 95 1002.2
20260507003606 51 174 0.0 0.0 0.00 0.34 0.34 95 1002.5
20260507003101 51 174 0.0 0.0 0.00 0.34 0.34 95 1002.5
20260507002558 51 174 0.0 0.0 0.00 0.34 0.34 95 1002.6
20260507002054 51 174 0.0 0.0 0.00 0.34 0.34 95 1002.4
20260507001551 51 174 0.0 0.0 0.00 0.34 0.34 95 1002.5
20260507001048 54 174 0.0 0.9 0.00 0.34 0.34 95 1002.5
20260507000544 55 174 0.0 0.0 0.00 0.34 0.34 95 1002.3
20260507000040 55 174 0.0 0.0 0.00 0.34 0.34 95 1002.1
20260506235538 55 174 0.0 0.0 0.00 0.34 0.34 95 1002.3
20260506235033 55 174 0.0 0.0 0.00 0.34 0.34 95 1002.3
20260506234531 55 174 0.0 0.0 0.00 0.34 0.34 95 1002.1
20260506234028 55 174 0.0 0.0 0.00 0.34 0.34 95 1002.2
20260506233524 55 174 0.0 0.0 0.00 0.34 0.34 95 1002.3
20260506233016 55 174 0.0 0.0 0.00 0.34 0.34 95 1002.0
20260506232512 55 174 0.0 0.0 0.00 0.34 0.34 95 1002.1
20260506232007 55 174 0.0 0.0 0.00 0.34 0.34 95 1002.1
20260506231505 55 174 0.0 0.0 0.00 0.34 0.34 95 1002.1
20260506231003 55 174 0.0 0.0 0.00 0.34 0.34 95 1002.2
20260506230458 55 174 0.0 0.0 0.00 0.34 0.34 95 1002.1
20260506225956 55 174 0.0 0.0 0.00 0.34 0.34 95 1002.1
20260506225453 55 174 0.0 0.0 0.00 0.34 0.34 95 1002.2
20260506224949 55 174 0.0 0.0 0.00 0.34 0.34 95 1002.0
20260506224446 55 174 0.0 0.0 0.00 0.34 0.34 95 1002.4
20260506223943 55 174 0.0 0.0 0.00 0.34 0.34 95 1002.5
20260506223438 55 174 0.0 0.0 0.00 0.34 0.34 95 1002.6
20260506222936 54 174 0.0 0.0 0.00 0.34 0.34 95 1002.4
20260506222432 53 174 0.0 0.0 0.00 0.34 0.34 95 1002.4
20260506221929 53 174 0.0 0.0 0.00 0.34 0.34 95 1002.5
20260506221426 52 174 0.0 0.0 0.00 0.34 0.34 95 1002.7
20260506220924 51 174 0.0 0.0 0.00 0.34 0.34 95 1002.6
20260506220419 51 174 0.0 0.0 0.00 0.34 0.34 95 1003.0
20260506215916 51 174 0.0 0.0 0.00 0.34 0.34 95 1002.8
20260506215412 51 174 0.0 0.0 0.00 0.34 0.34 95 1003.0
20260506214908 52 174 0.0 0.0 0.00 0.34 0.34 95 1003.0
20260506214405 52 174 0.0 0.0 0.00 0.34 0.34 95 1002.9
20260506213903 52 174 0.0 0.0 0.00 0.34 0.34 95 1003.1
20260506213401 53 174 0.0 0.0 0.00 0.34 0.34 95 1003.2
20260506212858 54 174 0.0 0.0 0.05 0.34 0.34 95 1003.3
20260506212353 55 174 0.0 0.0 0.12 0.34 0.34 95 1003.3
20260506211848 54 174 0.0 0.0 0.12 0.33 0.33 95 1003.1
20260506211344 55 174 0.0 0.0 0.12 0.32 0.32 95 1003.3
20260506210842 55 174 0.0 0.0 0.14 0.31 0.31 95 1003.3
20260506210339 54 174 0.0 0.0 0.12 0.30 0.30 95 1003.6
20260506205836 54 174 0.0 0.0 0.05 0.29 0.29 95 1003.4
20260506205332 55 174 0.0 0.0 0.07 0.28 0.28 95 1003.4
20260506204828 55 174 0.0 0.0 0.07 0.28 0.28 95 1003.3
20260506204326 55 174 0.0 0.0 0.00 0.27 0.27 95 1003.5
20260506203824 55 174 0.0 0.0 0.05 0.27 0.27 95 1003.4
20260506203321 55 174 0.0 0.0 0.05 0.27 0.27 95 1003.4
20260506202817 55 174 0.0 0.0 0.07 0.26 0.26 95 1003.4
20260506202315 55 174 0.0 0.0 0.12 0.26 0.26 95 1003.6
20260506201811 56 174 0.0 0.0 0.05 0.25 0.25 95 1003.6
20260506201308 56 174 0.0 0.0 0.00 0.24 0.24 95 1003.6
20260506200805 57 174 0.0 0.0 0.19 0.24 0.24 95 1003.5
20260506200301 57 174 0.0 0.0 0.17 0.23 0.23 95 1003.7
20260506195757 57 174 0.0 0.0 0.05 0.21 0.21 95 1004.0
20260506195254 56 174 0.0 0.0 0.07 0.20 0.20 95 1003.8
20260506194752 57 174 0.0 0.0 0.07 0.20 0.20 95 1003.7
20260506194248 57 174 0.0 0.0 0.07 0.19 0.19 95 1004.0
20260506193746 57 174 0.0 0.0 0.07 0.19 0.19 95 1003.9